EHI
0 0 0 0 0 0 0 0 0 0 1 4 9 12 12 10 7 6 4 4 2 1 0 0 0 0 0 0 0 0 0 0 0 0 0 0 0 0 0 0 0 0 0 0
0 0 0 0 0 0 0 0 0 0 1 4 7 9 8 6 5 4 4 3 2 1 0 0 0 0 0 0 0 0 0 0 0 0 0 0 0 0 0 0 0 0 0 0
0 0 0 0 0 0 0 0 0 0 0 2 4 5 4 3 2 2 3 2 1 0 0 0 0 0 0 0 0 0 0 0 0 0 0 0 0 0 0 0 0 0 0 0
0 0 0 0 0 0 0 0 0 0 0 0 1 2 2 1 1 1 1 1 1 0 0 0 0 0 0 0 0 0 0 0 0 0 0 0 0 0 0 0 0 0 0 0
0 0 0 0 0 0 0 0 0 0 0 0 0 0 0 1 0 0 0 0 1 1 1 1 0 0 0 0 0 0 0 0 0 0 0 0 0 0 0 0 0 0 0 0
0 0 0 0 0 0 0 0 0 0 0 0 0 0 0 0 0 0 0 0 1 2 1 1 0 0 0 0 0 0 0 0 0 0 0 0 0 0 0 0 0 0 0 0
0 0 0 0 0 0 0 0 0 0 0 0 0 0 0 0 0 0 0 0 1 1 1 0 0 0 0 0 0 0 0 0 0 0 0 0 0 0 0 0 0 0 0 0
0 0 0 0 0 0 0 0 0 0 0 0 0 0 0 0 0 0 0 0 0 0 0 0 0 0 0 0 0 0 0 0 0 0 0 0 0 0 0 0 0 0 0 0
0 0 0 0 0 0 0 0 0 0 0 0 0 0 0 0 0 0 0 0 0 0 0 0 0 0 0 0 0 0 0 0 0 0 0 0 0 0 0 0 0 0 0 0
0 0 0 0 0 0 0 0 0 0 0 0 0 0 0 0 0 0 0 0 0 0 0 0 0 0 0 0 0 0 0 0 0 0 0 0 0 0 0 0 0 0 0 0
0 0 0 0 0 0 0 0 0 0 0 0 0 0 0 0 0 0 0 0 0 0 0 0 0 0 0 0 0 0 0 0 0 0 0 0 0 0 0 0 0 0 0 0
0 0 0 0 0 0 0 0 0 0 0 0 0 0 0 0 0 0 0 0 0 0 0 0 0 0 0 0 0 0 0 0 0 0 0 0 0 0 0 0 0 0 0 0
0 0 0 0 0 0 0 0 0 0 0 0 0 0 0 0 0 0 0 0 0 0 0 0 0 0 0 0 0 0 0 0 0 0 0 0 0 0 0 0 0 0 0 0
0 0 0 0 0 0 0 0 0 0 0 0 0 0 0 0 0 0 0 0 0 0 0 0 0 0 0 0 0 0 0 0 0 0 0 0 0 0 0 0 0 0 0 0
0 0 0 0 0 0 0 0 0 0 0 0 0 0 0 0 0 0 0 0 0 0 0 0 0 0 0 0 0 0 0 0 0 0 0 0 0 0 0 0 0 0 0 0
0 0 0 0 0 0 0 0 0 0 0 0 0 0 0 0 0 0 0 0 0 0 0 0 0 0 0 0 0 0 0 0 0 0 0 0 0 0 0 0 0 0 0 0
0 0 0 0 0 0 0 0 0 0 0 0 0 0 0 0 0 0 0 0 0 0 0 0 0 0 0 0 0 0 0 0 0 0 0 0 0 0 0 0 0 0 0 0
0 0 0 0 0 0 0 0 0 0 0 0 0 0 0 0 0 0 0 0 0 0 0 0 0 0 0 0 0 0 0 0 0 0 0 0 0 0 0 0 0 0 0 0
0 0 0 0 0 0 0 0 0 0 0 0 0 0 0 0 0 0 0 0 0 0 0 0 0 0 0 0 0 0 0 0 0 0 0 0 0 0 0 0 0 0 0 0
0 0 0 0 0 0 0 0 0 0 0 0 0 0 0 0 0 0 0 0 0 0 0 0 0 0 0 0 0 0 0 0 0 0 0 0 0 0 0 0 0 0 0 0
0 0 0 0 0 0 0 0 0 0 0 0 0 0 0 0 0 0 0 0 0 0 0 0 0 0 0 0 0 0 0 0 0 0 0 0 0 0 0 0 0 0 0 0
0 0 0 0 0 0 0 0 0 0 0 0 0 0 0 0 0 0 0 0 0 0 0 0 0 0 0 0 0 0 0 0 0 0 0 0 0 0 0 0 0 0 0 0
0 0 0 0 0 0 0 0 0 0 0 0 0 0 0 0 0 0 0 0 0 0 0 0 0 0 0 0 0 0 0 0 0 0 0 0 0 0 0 0 0 0 0 0
0 0 0 0 0 0 0 0 0 0 0 0 0 0 0 0 0 0 0 0 0 0 0 0 0 0 0 0 0 0 0 0 0 0 0 0 0 0 0 0 0 0 0 0
0 0 0 0 0 0 0 0 0 0 0 0 0 0 0 0 0 0 0 0 0 0 0 0 0 0 0 0 0 0 0 0 0 0 0 0 0 0 0 0 0 0 0 0
0 0 0 0 0 0 0 0 0 0 0 0 0 0 0 0 0 0 0 0 0 0 0 0 0 0 0 0 0 0 0 0 0 0 0 0 0 0 0 0 0 0 0 0
Wind_Speed
1 3 4 7 6 6 2 2 3 2 3 7 8 7 4 4 3 3 3 4 5 4 4 5 5 5 5 4 4 4 3 3 2 2 2 2 2 3 3 2 2 1 1 1
3 3 9 6 3 2 1 2 2 2 5 7 6 6 4 3 1 3 5 6 6 5 4 5 5 5 5 5 5 5 4 3 2 2 1 1 1 1 1 2 3 3 3 3
4 6 4 1 1 1 1 4 5 3 4 6 5 2 1 1 2 2 5 7 7 9 8 7 7 7 6 6 6 6 5 4 3 2 1 1 2 2 3 3 3 4 5 5
3 4 2 2 3 2 3 6 8 8 6 1 2 2 4 3 3 5 6 7 8 8 8 8 8 7 7 7 6 5 5 4 3 3 2 1 1 1 3 2 3 5 5 6
5 3 2 3 4 3 4 5 6 6 6 3 2 1 4 1 4 6 6 7 9 9 9 9 9 8 7 5 4 4 4 3 3 3 3 2 2 2 3 3 4 5 5 5
5 3 3 3 2 5 9 8 7 5 5 3 2 1 4 4 5 4 5 6 8 8 8 7 6 4 3 3 3 4 4 3 2 2 2 3 3 4 3 4 4 4 3 4
8 5 3 1 1 3 6 6 3 4 4 1 2 1 7 6 5 7 7 7 6 5 5 5 4 4 3 4 3 4 4 2 2 2 2 3 4 4 4 4 3 4 3 3
2 6 4 2 3 3 3 8 7 4 3 1 2 3 7 6 5 5 5 5 3 3 4 4 4 5 4 4 4 3 3 2 2 2 3 3 3 2 3 4 3 4 3 4
2 5 5 3 1 3 1 1 6 8 4 4 2 4 7 5 3 3 5 4 4 4 5 5 5 5 5 4 3 3 3 2 2 3 3 3 3 3 4 4 4 4 4 5
3 3 5 4 5 3 3 5 6 5 4 2 3 4 5 6 6 5 5 5 5 5 5 5 5 4 4 3 2 2 2 2 3 3 4 3 4 4 4 4 5 5 5 5
2 2 5 5 2 1 2 3 5 4 5 6 4 6 7 9 8 8 7 7 7 7 6 5 4 3 3 2 2 1 2 2 3 4 4 4 4 5 5 5 6 6 6 6
1 5 1 5 5 2 2 3 6 4 0 4 4 5 2 8 8 9 8 7 7 7 5 5 4 3 2 2 2 2 3 3 4 4 4 4 5 5 5 6 7 6 7 7
4 6 4 9 11 6 2 1 4 7 5 4 5 3 2 6 7 7 8 7 6 6 5 4 3 2 2 3 3 4 4 5 5 4 4 4 5 6 6 7 7 7 7 7
6 5 6 5 8 6 4 3 3 6 4 3 6 7 6 6 7 6 7 8 7 6 5 4 2 2 3 4 4 4 5 5 4 4 4 5 6 6 7 7 7 7 7 7
5 2 2 4 5 4 5 4 2 5 8 7 7 9 10 10 9 9 8 7 6 5 4 4 3 3 3 4 4 4 4 4 4 4 5 6 7 6 6 6 7 7 7 8
3 2 2 5 7 8 7 5 1 3 5 6 8 5 6 6 5 5 6 7 6 5 4 3 3 3 4 4 4 4 4 4 4 5 6 6 6 6 6 7 7 7 7 7
3 4 2 4 7 6 4 3 2 2 3 8 7 7 6 5 6 7 7 7 6 5 4 3 3 4 4 4 4 4 4 4 4 5 6 6 6 7 7 7 7 7 8 7
7 5 4 0 5 3 9 5 5 7 3 5 7 7 8 7 6 5 7 7 6 5 4 3 3 4 3 3 3 3 3 4 5 6 6 6 6 7 8 7 8 8 7 7
8 8 4 3 1 6 7 4 3 6 3 3 8 8 7 6 4 2 5 6 7 6 5 5 4 3 3 3 3 3 4 5 5 6 6 7 7 8 8 8 9 8 7 8
5 6 6 4 3 5 8 4 4 9 1 3 7 8 8 8 2 5 6 6 6 5 4 3 3 2 2 4 3 3 5 5 6 6 7 7 7 8 9 9 9 8 7 8
2 2 3 4 5 8 7 4 3 2 8 8 8 8 8 7 7 6 6 6 6 5 4 4 2 2 4 4 3 4 5 6 7 6 6 7 7 8 9 8 7 8 8 8
5 3 4 3 2 8 6 3 5 9 6 7 8 8 8 8 6 7 8 7 6 5 4 3 2 3 4 4 2 4 6 7 6 6 6 8 8 8 9 8 9 8 7 8
2 7 6 7 9 10 7 8 8 8 8 8 9 8 9 8 8 8 8 7 6 5 4 3 3 3 4 4 3 5 6 6 5 6 7 8 9 8 8 8 9 8 7 6
5 2 2 3 8 7 7 6 5 8 9 9 9 10 10 9 9 8 7 6 5 5 4 3 2 3 4 4 4 5 5 4 4 6 7 7 8 9 8 7 6 6 7 6
6 2 2 4 7 5 4 5 6 6 7 8 8 9 11 11 9 9 8 7 7 5 4 3 3 4 5 4 4 5 4 3 5 6 7 7 7 8 8 8 7 7 7 7
5 4 4 7 8 6 7 7 6 8 9 11 10 9 9 10 10 10 9 8 7 6 5 4 4 4 4 4 4 5 4 3 4 6 6 6 7 7 7 8 9 10 10 11
Wind_Direction
303 112 240 239 193 184 184 272 277 274 49 68 77 82 46 38 58 96 122 135 140 161 165 148 147 138 131 126 122 121 110 101 88 65 49 30 355 340 344 329 318 291 277 282
7 269 240 236 205 155 142 192 266 13 63 77 74 70 54 24 265 192 178 176 172 173 176 171 169 168 168 169 166 164 162 151 135 129 135 157 219 290 314 333 332 321 311 296
219 249 280 303 43 82 195 175 183 158 79 65 98 78 32 266 251 214 203 192 179 186 192 192 189 191 192 192 190 183 181 168 155 139 102 40 24 360 352 341 327 312 305 300
253 267 311 303 249 171 230 209 173 152 128 131 168 201 235 209 255 233 206 200 197 198 197 199 197 198 201 203 192 183 176 166 162 144 130 142 168 257 263 271 286 303 307 304
259 257 272 272 247 176 191 158 142 146 128 92 6 130 267 205 248 247 228 213 207 204 200 201 201 199 200 194 176 167 152 155 169 168 172 179 217 238 263 285 304 308 309 312
265 252 219 222 243 148 128 91 70 58 80 69 279 169 271 222 218 237 237 225 212 204 200 201 200 184 169 146 141 139 144 172 195 195 200 201 229 252 279 298 305 305 307 311
325 313 278 182 58 108 124 106 54 15 29 293 276 269 260 253 234 225 230 230 216 199 188 184 171 149 138 130 143 153 158 195 225 222 235 240 245 250 258 271 273 285 294 297
316 307 286 234 177 179 174 135 149 182 184 199 286 260 268 273 268 224 218 206 190 177 162 155 150 140 134 131 133 144 159 202 239 247 261 265 258 243 249 254 254 260 260 265
235 278 296 270 234 119 82 123 157 129 107 112 241 284 300 290 276 207 194 172 168 159 142 134 131 138 144 143 151 160 171 213 249 256 263 266 261 250 251 260 260 264 264 272
192 268 313 330 39 10 133 143 83 91 123 132 201 225 229 230 221 206 179 165 159 142 133 136 143 153 160 159 164 173 183 217 246 262 265 268 261 261 262 265 271 270 271 272
115 116 326 2 30 291 12 59 101 110 142 141 190 251 220 194 188 171 168 165 161 160 159 160 163 165 157 154 170 200 229 247 266 269 268 275 275 272 268 265 265 264 266 267
73 109 325 294 287 241 180 161 133 125 325 131 143 267 269 159 162 155 164 171 169 162 162 162 163 160 162 194 230 237 249 259 262 261 264 267 270 272 271 268 264 261 262 262
96 89 35 347 341 343 337 228 144 130 113 119 131 237 222 143 156 165 165 169 168 163 160 162 167 181 209 236 248 250 257 262 266 265 266 275 280 278 274 269 267 264 261 263
109 104 147 197 241 266 289 285 158 121 132 163 171 172 189 178 176 182 175 175 173 170 169 174 193 228 247 256 254 256 265 268 271 271 275 278 277 273 269 269 269 266 262 262
97 127 235 249 273 309 296 274 194 155 170 162 180 174 197 195 187 187 183 175 161 165 172 176 194 230 255 267 269 267 271 277 277 282 282 278 276 277 276 276 274 273 268 268
105 137 12 327 319 329 322 307 195 152 143 132 133 178 206 188 169 173 174 161 160 172 173 174 193 238 266 272 269 270 276 279 281 285 284 282 286 289 285 282 281 281 275 271
144 129 98 296 315 353 318 277 135 124 136 147 165 187 172 163 177 182 173 165 170 174 176 193 225 248 263 264 256 263 268 279 290 290 289 292 293 292 288 289 291 285 280 275
152 130 132 235 9 321 260 269 117 97 58 122 130 151 165 171 173 178 178 171 174 178 188 215 237 253 260 258 263 263 279 292 296 297 296 295 295 294 293 291 287 283 278 277
154 141 135 133 211 279 296 301 143 118 66 137 136 149 155 145 112 255 211 180 180 187 196 213 224 228 248 267 268 279 295 299 300 297 297 296 296 297 298 295 290 285 283 282
106 116 131 156 186 239 251 255 133 99 132 216 155 158 160 149 138 250 215 181 181 187 194 206 218 227 263 271 272 288 294 297 293 288 290 294 295 295 295 292 288 285 282 280
86 73 156 195 218 255 241 224 102 123 228 205 175 169 162 171 196 208 179 181 186 187 192 184 188 237 260 268 274 286 290 285 278 282 291 297 297 295 292 289 288 290 290 289
182 178 213 174 197 258 243 187 178 211 199 180 174 172 169 182 183 166 170 181 183 180 181 177 199 258 271 270 266 282 284 277 283 290 297 299 299 300 307 300 297 295 291 290
179 188 186 185 213 232 224 209 207 172 171 182 176 178 165 163 168 171 178 182 185 183 192 200 213 263 282 275 258 272 278 284 294 301 301 301 303 302 300 298 298 301 296 288
293 213 158 266 269 258 247 232 201 180 180 180 173 171 165 166 171 172 175 183 187 194 200 206 223 269 282 280 273 262 274 285 297 301 302 301 305 306 307 302 294 294 294 291
256 306 345 297 289 311 291 230 200 185 172 169 171 173 171 165 169 173 179 187 192 197 205 200 213 246 264 274 276 275 276 289 300 301 300 303 302 302 306 303 295 291 282 272
241 216 203 240 245 220 244 238 195 174 179 178 175 179 178 170 173 172 180 186 187 192 195 200 218 236 257 266 272 276 272 280 297 302 304 304 306 306 304 305 307 300 289 287